Location: Limerick
(52.6650°N, 8.6230°W)
Time: 21:40:07
(UTC+00:00)

ISS - Pass Details

Date: 10 November 2019
Orbit: 412 x 421 km, 51.6° (Epoch: 15 November)

Event Time Altitude Azimuth Distance (km) Brightness Sun altitude
Exits shadow 05:33:35 24° 182° (S) 908 -2.1 -20.2°
Drops below altitude 10° 05:35:39 10° 149° (SSE) 1,500 -0.5 -19.9°
Sets 05:37:55 0° 137° (SE) 2,360 0.8 -19.6°
